Ottumwa, IA

7:14 AM CDT on May 24, 2017 (GMT -0500)
Ottumwa Industrial

Weather History for KOTM - September, 2013

Change the Weather History Date:

Saturday, September 14, 2013

  Actual Average Record
Temperature  
Mean Temperature 59 °F 65 °F  
Max Temperature 76 °F 77 °F 99 °F (1939)
Min Temperature 42 °F 54 °F 35 °F (1923)
Degree Days  
Heating Degree Days 6 3  
Month to date heating degree days 11 24  
Since 1 July heating degree days 27 35  
Cooling Degree Days 0 3  
Month to date cooling degree days 126 63  
Year to date cooling degree days 941 897  
Growing Degree Days 8 (Base 50)    
Moisture  
Dew Point 43 °F    
Average Humidity 60    
Maximum Humidity 89    
Minimum Humidity 31    
Precipitation  
Precipitation 0.00 in 0.13 in 5.32 in (1992)
Month to date precipitation 0.05 1.89  
Year to date precipitation 28.59 28.59  
Sea Level Pressure  
Sea Level Pressure 30.07 in    
Wind  
Wind Speed 8 mph (SSE)    
Max Wind Speed 16 mph    
Max Gust Speed 21 mph    
Visibility 10 miles    
Events      
T = Trace of Precipitation, MM = Missing Value Source: NWS Daily Summary

Daily Weather History Graph

Daily Weather History Graph

Search for Another Location

Airport or City:

Trip Planner

Search our weather history database for the weather conditions in past years. The results will help you decide how hot, cold, wet, or windy it might be!

Date:

Astronomy

Sep. 14, 2013 Rise Set
Actual Time 6:49 AM CDT 7:20 PM CDT
Civil Twilight 6:21 AM CDT 7:47 PM CDT
Nautical Twilight 5:49 AM CDT 8:20 PM CDT
Astronomical Twilight 5:15 AM CDT 8:53 PM CDT
Moon 4:03 PM CDT (9/14) 1:19 AM CDT (9/14)
Length of Visible Light 13h 25m
Length of Day
12h 30m
Waxing Gibbous, 72% of the Moon is Illuminated
Sep 14
Waxing Gibbous
Sep 19
Full
Sep 26
Last Quarter
Oct 4
New
Oct 11
First Quarter

Hourly Weather History & Observations

Time (CDT) Temp. Windchill Dew Point Humidity Pressure Visibility Wind Dir Wind Speed Gust Speed Precip Events Conditions
12:53 AM 51.1 °F - 39.9 °F 66% 30.12 in 10.0 mi ESE 5.8 mph - N/A   Clear
1:53 AM 51.1 °F - 39.9 °F 66% 30.13 in 10.0 mi East 3.5 mph - N/A   Clear
2:53 AM 46.0 °F 44.8 °F 39.9 °F 79% 30.12 in 10.0 mi East 3.5 mph - N/A   Clear
3:53 AM 44.1 °F - 39.9 °F 85% 30.12 in 10.0 mi Calm Calm - N/A   Clear
4:53 AM 42.1 °F - 39.0 °F 89% 30.12 in 10.0 mi Calm Calm - N/A   Clear
5:53 AM 43.0 °F 41.3 °F 39.0 °F 86% 30.13 in 10.0 mi SSE 3.5 mph - N/A   Clear
6:53 AM 45.0 °F 41.8 °F 39.9 °F 82% 30.14 in 10.0 mi SSE 5.8 mph - N/A   Clear
7:53 AM 48.9 °F - 43.0 °F 80% 30.16 in 10.0 mi SSE 5.8 mph - N/A   Clear
8:53 AM 55.0 °F - 45.0 °F 69% 30.16 in 10.0 mi South 11.5 mph - N/A   Clear
9:53 AM 60.1 °F - 46.9 °F 62% 30.15 in 10.0 mi South 10.4 mph - N/A   Clear
10:53 AM 64.9 °F - 46.9 °F 52% 30.14 in 10.0 mi South 8.1 mph - N/A   Clear
11:53 AM 69.1 °F - 45.0 °F 42% 30.12 in 10.0 mi South 11.5 mph 16.1 mph N/A   Clear
12:53 PM 71.1 °F - 42.1 °F 35% 30.10 in 10.0 mi South 11.5 mph 16.1 mph N/A   Clear
1:53 PM 72.0 °F - 43.0 °F 35% 30.07 in 10.0 mi South 6.9 mph - N/A   Clear
2:53 PM 73.0 °F - 42.1 °F 33% 30.04 in 10.0 mi SSE 11.5 mph - N/A   Clear
3:53 PM 73.9 °F - 43.0 °F 33% 30.02 in 10.0 mi SSW 10.4 mph 19.6 mph N/A   Clear
4:53 PM 73.9 °F - 43.0 °F 33% 30.00 in 10.0 mi South 9.2 mph - N/A   Clear
5:53 PM 73.0 °F - 41.0 °F 31% 29.99 in 10.0 mi South 12.7 mph - N/A   Clear
6:53 PM 64.9 °F - 45.0 °F 48% 29.99 in 10.0 mi SSE 4.6 mph - N/A   Clear
7:53 PM 62.1 °F - 46.0 °F 56% 29.98 in 10.0 mi SE 5.8 mph - N/A   Clear
8:53 PM 63.0 °F - 44.1 °F 50% 29.98 in 10.0 mi SSE 8.1 mph - N/A   Clear
9:53 PM 64.0 °F - 45.0 °F 50% 29.97 in 10.0 mi SSE 11.5 mph - N/A   Clear
10:53 PM 63.0 °F - 46.0 °F 54% 29.96 in 10.0 mi South 9.2 mph - N/A   Clear
11:53 PM 63.0 °F - 46.0 °F 54% 29.96 in 10.0 mi South 12.7 mph - N/A   Clear